[[{"header":{"parameterUnit":"m.s-1","parameterCategory":2,"la1":30.2991,"la2":30.254,"lo1":-89.0895,"lo2":-89.0444,"dy":0.0017,"dx":0.0017,"nx":28,"ny":28,"refTime":"2025-08-07T21:00:00:Z","depth":"0","parameterNumber":2,"parameterNumberName":"U-component_of_CURRENTS"},"data":[0,0,0,0,0,0,0,0,0,0,0,0,0,0,0,0,0,0,0,0,0,0,0,0,0,0,0,0,0,0,0,0,0,0,0,0,0,0,0,0,0,0,0,0,0,0,0,0,0,0,0,0,0,0,0,0,0,0,0.3512,0.3512,0,0.3489,0.3489,0.3488,0.3445,0.3445,0.3444,0.3444,0.3401,0.34,0.34,0,0,0,0,0,0,0,0,0,0,0,0,0,0.3548,0.3547,0.3512,0.3512,0.3512,0.349,0.3489,0.3488,0.3445,0.3445,0.3444,0.3443,0.3401,0.34,0.34,0,0,0,0,0,0,0,0,0,0,0,0,0,0.3527,0.3547,0.3512,0.349,0.3488,0.349,0.3489,0.3488,0.3446,0.3445,0.3444,0.3443,0.3401,0.3401,0.34,0.3412,0,0,0.3397,0.3397,0,0,0,0,0,0,0,0,0.3528,0.3525,0.3493,0.3491,0.3489,0.3472,0.3486,0.3463,0.3446,0.3459,0.3444,0.3443,0.3425,0.3422,0.3416,0.341,0.3408,0.3397,0.3396,0.3396,0.3396,0,0,0,0,0,0,0,0.353,0.3526,0.35,0.3493,0.3491,0.3492,0.3487,0.3482,0.3445,0.3457,0.3455,0.3457,0.3423,0.3417,0.3415,0.3407,0.3397,0.3396,0.3396,0.3395,0.3442,0.3444,0,0,0,0,0,0,0.3537,0.3528,0.3501,0.35,0.351,0.3492,0.3487,0.3476,0.3445,0.344,0.3458,0.3455,0.3419,0.3416,0.3413,0.3449,0.3396,0.3395,0.3395,0.344,0.3443,0.3445,0,0,0,0,0,0,0.3538,0.3535,0.3502,0.3516,0.3512,0.3492,0.3481,0.3476,0.3474,0.3446,0.344,0.3461,0.3418,0.3415,0.3419,0.3446,0.3395,0.3394,0.3438,0.3441,0.3444,0.3505,0,0,0,0,0,0,0.3539,0.3535,0.3533,0.3516,0.3512,0.351,0.3482,0.3476,0.3478,0.3474,0.3447,0.3442,0.3417,0.3421,0.3418,0.3444,0.3393,0.3436,0.344,0.3443,0.3501,0.3509,0.3517,0,0,0,0,0,0.354,0.3539,0.3533,0.353,0.3508,0.3511,0.3509,0.349,0.3479,0.3484,0.3469,0.3443,0.344,0.3421,0.3418,0.3444,0.3434,0.3439,0.3442,0.3497,0.3508,0.3517,0,0,0,0,0,0,0.3558,0.3535,0.3527,0.3519,0.3521,0.3505,0.3508,0.35,0.3492,0.3489,0.3459,0.3454,0.3472,0.3454,0.3434,0.347,0.3436,0.344,0.3479,0.3489,0.3497,0.3515,0.3393,0,0,0,0,0,0.3562,0.3551,0.3541,0.3539,0.354,0.3528,0.3528,0.352,0.3511,0.3506,0.3489,0.3481,0.3487,0.3483,0.3482,0.3496,0.3525,0.3514,0.3523,0.3529,0.3544,0.363,0.3648,0.3458,0.3458,0.3458,0,0,0.3567,0.3557,0.3549,0.3542,0.3538,0.3547,0.3525,0.3531,0.3541,0.3505,0.351,0.3509,0.35,0.3518,0.3525,0.3503,0.3599,0.3534,0.354,0.3552,0.3637,0.3655,0.3672,0.346,0.346,0.3459,0,0,0.3579,0.3566,0.3562,0.3568,0.3571,0.3568,0.3575,0.3568,0.3565,0.3577,0.3562,0.3583,0.3571,0.3581,0.3583,0.3639,0.3644,0.3635,0.3682,0.3766,0.3782,0.3797,0.3858,0.3878,0.3633,0.3633,0.3633,0,0.3591,0.3578,0.3567,0.3576,0.3582,0.3581,0.3592,0.3598,0.3595,0.361,0.3586,0.3623,0.3608,0.3656,0.367,0.3658,0.37,0.3641,0.3778,0.3793,0.3807,0.3866,0.3888,0.3636,0.3636,0.3636,0.3635,0,0.3597,0.3596,0.3601,0.3604,0.3617,0.3627,0.3637,0.3655,0.3655,0.3666,0.3712,0.3707,0.3734,0.3733,0.3711,0.3805,0.38,0.3783,0.3753,0.3831,0.3887,0.3908,0.3641,0.364,0.3639,0.3638,0,0,0.3597,0.3601,0.3602,0.3605,0.363,0.3635,0.3675,0.3708,0.3748,0.3757,0.382,0.3827,0.3842,0.3848,0.3839,0.3896,0.4021,0.3881,0.3884,0.3942,0.4205,0.4121,0.4135,0.4034,0.4038,0.4041,0.4204,0,0.3605,0.3607,0.3618,0.3638,0.3639,0.367,0.3708,0.3748,0.3786,0.3853,0.3881,0.3936,0.3882,0.3912,0.3964,0.4023,0.408,0.3979,0.4121,0.4125,0.4042,0.4158,0.3986,0.411,0.4224,0.4228,0.423,0,0.36,0.3602,0.3607,0.3641,0.3649,0.367,0.3741,0.378,0.3886,0.3926,0.4001,0.404,0.4135,0.4078,0.4219,0.4162,0.4189,0.4218,0.4225,0.4141,0.4081,0.4052,0.4144,0.4041,0.4263,0.426,0.4258,0,0.3566,0.3594,0.359,0.3598,0.3643,0.3666,0.3703,0.3797,0.3859,0.3994,0.4083,0.4177,0.4259,0.4324,0.437,0.4322,0.4527,0.4469,0.4415,0.4409,0.4287,0.4262,0.4295,0.4573,0.4573,0.4572,0.4572,0,0.3546,0.3541,0.357,0.3562,0.3591,0.3639,0.3709,0.3769,0.3909,0.4019,0.412,0.4232,0.4331,0.4447,0.4455,0.4514,0.4602,0.4459,0.4462,0.43,0.4277,0.4197,0.4135,0.4578,0.4577,0.4576,0.4575,0,0.348,0.3499,0.3499,0.3544,0.3562,0.3579,0.3697,0.3765,0.3908,0.4071,0.4133,0.4326,0.4478,0.4555,0.4684,0.4629,0.4555,0.4668,0.4459,0.4432,0.4239,0.4185,0.4092,0.3971,0.4649,0.4648,0.4648,0,0.3426,0.342,0.3462,0.3476,0.3487,0.3541,0.3594,0.3733,0.3828,0.4115,0.4194,0.4414,0.4535,0.4695,0.4651,0.4681,0.4544,0.4521,0.4379,0.4237,0.4183,0.4019,0.3911,0.4252,0.4248,0.4244,0.4242,0,0.3339,0.3362,0.3369,0.3408,0.3445,0.3504,0.3594,0.3672,0.3877,0.403,0.4241,0.4375,0.4537,0.4494,0.4528,0.4509,0.4296,0.4452,0.4379,0.3943,0.3697,0.3576,0.4127,0.4213,0.4216,0.4218,0.422,0.4221,0.3273,0.3267,0.3305,0.3329,0.3387,0.3453,0.3471,0.3608,0.3747,0.3925,0.4126,0.4221,0.4314,0.4327,0.4295,0.4118,0.4086,0.3973,0.3948,0.3816,0.3603,0.4077,0.4109,0.4111,0.4113,0.4114,0.4116,0,0.3185,0.3202,0.323,0.3266,0.3295,0.3359,0.3459,0.3464,0.3565,0.3725,0.3854,0.3896,0.3877,0.3914,0.3812,0.3644,0.3472,0.3542,0.3287,0.3226,0.3733,0.3618,0.3454,0.3454,0.3454,0.3454,0.3455,0.3455,0.3142,0.3132,0.3149,0.316,0.3189,0.3181,0.3204,0.3235,0.3301,0.3314,0.3299,0.3361,0.3538,0.3569,0.3417,0.3328,0.3071,0.2907,0.2915,0.3293,0.333,0.3366,0.3246,0.3006,0.3006,0.2271,0.2265,0.2261]},{"header":{"parameterUnit":"m.s-1","parameterCategory":2,"la1":30.2991,"la2":30.254,"lo1":-89.0895,"lo2":-89.0444,"dy":0.0017,"dx":0.0017,"nx":28,"ny":28,"refTime":"2025-08-07T21:00:00:Z","depth":"0","parameterNumber":3,"parameterNumberName":"V-component_of_CURRENTS"},"data":[0,0,0,0,0,0,0,0,0,0,0,0,0,0,0,0,0,0,0,0,0,0,0,0,0,0,0,0,0,0,0,0,0,0,0,0,0,0,0,0,0,0,0,0,0,0,0,0,0,0,0,0,0,0,0,0,0,0,0.0264,0.0264,0,0.0219,0.0218,0.0218,0.0184,0.0184,0.0184,0.0184,0.0111,0.0109,0.0107,0,0,0,0,0,0,0,0,0,0,0,0,0,0.026,0.026,0.0264,0.0264,0.0264,0.0219,0.0218,0.0218,0.0184,0.0184,0.0184,0.0183,0.0111,0.0109,0.0107,0,0,0,0,0,0,0,0,0,0,0,0,0,0.0241,0.026,0.0264,0.0243,0.0241,0.0219,0.0218,0.0217,0.0184,0.0184,0.0184,0.0183,0.0112,0.011,0.0107,0.0094,0,0,0.0098,0.0097,0,0,0,0,0,0,0,0,0.0242,0.0241,0.0246,0.0244,0.0242,0.0209,0.019,0.0175,0.0184,0.0203,0.0184,0.0183,0.0142,0.0137,0.0127,0.009,0.0087,0.0098,0.0097,0.0095,0.0095,0,0,0,0,0,0,0,0.0244,0.0243,0.0244,0.0246,0.0243,0.0214,0.0212,0.0187,0.0172,0.0202,0.02,0.0198,0.0141,0.0129,0.0125,0.0086,0.0098,0.0096,0.0094,0.0093,0.0044,0.0044,0,0,0,0,0,0,0.0257,0.0244,0.0246,0.0243,0.0244,0.0215,0.0212,0.0218,0.0173,0.0167,0.0198,0.0196,0.0134,0.0128,0.0122,0.0126,0.0095,0.0093,0.0091,0.0043,0.0044,0.0044,0,0,0,0,0,0,0.0257,0.0258,0.0248,0.0244,0.0241,0.0216,0.0222,0.0217,0.021,0.0171,0.0164,0.0197,0.0134,0.0126,0.0109,0.0122,0.0092,0.0089,0.0043,0.0044,0.0044,0.0119,0,0,0,0,0,0,0.0257,0.0258,0.0265,0.0245,0.0241,0.0246,0.0222,0.0216,0.021,0.0207,0.0168,0.0161,0.0133,0.0114,0.0107,0.0117,0.0087,0.0043,0.0043,0.0044,0.0116,0.0122,0.0127,0,0,0,0,0,0.0257,0.0273,0.0265,0.0265,0.0252,0.0247,0.0242,0.0222,0.021,0.0213,0.0187,0.0162,0.0112,0.0112,0.0103,0.0114,0.0042,0.0043,0.0044,0.0113,0.0121,0.0127,0,0,0,0,0,0,0.0272,0.0271,0.0262,0.0275,0.0265,0.0242,0.0242,0.0228,0.0209,0.0205,0.0167,0.0158,0.0146,0.0119,0.012,0.01,0.0073,0.0072,0.0128,0.0135,0.014,0.0165,0.0085,0,0,0,0,0,0.0279,0.0291,0.028,0.0289,0.0288,0.0265,0.0259,0.0247,0.0229,0.022,0.0193,0.0164,0.0141,0.0131,0.0103,0.0096,0.0077,0.0096,0.0101,0.0106,0.012,0.0103,0.0109,0.0047,0.0047,0.0047,0,0,0.0285,0.0287,0.0292,0.0293,0.0281,0.0294,0.0261,0.0259,0.0268,0.0215,0.0215,0.018,0.0142,0.0133,0.0125,0.0114,0.0113,0.0107,0.0112,0.0123,0.0105,0.0111,0.0116,0.0047,0.0047,0.0047,0,0,0.0311,0.0307,0.0328,0.0328,0.0323,0.0312,0.0317,0.03,0.029,0.0284,0.0248,0.0227,0.019,0.0172,0.0156,0.0175,0.014,0.016,0.0212,0.0196,0.0202,0.0206,0.0192,0.0195,0.0167,0.0167,0.0167,0,0.0318,0.0348,0.0331,0.0353,0.0362,0.0328,0.0355,0.0341,0.032,0.0322,0.0294,0.0251,0.0212,0.0212,0.0214,0.0189,0.0174,0.0193,0.0205,0.0209,0.0212,0.0197,0.0199,0.0171,0.017,0.017,0.0169,0,0.0365,0.0386,0.0398,0.042,0.0424,0.044,0.0427,0.0423,0.0404,0.0393,0.0382,0.0329,0.0307,0.0287,0.0254,0.0261,0.0241,0.0213,0.0194,0.0224,0.0205,0.0206,0.0176,0.0175,0.0173,0.0173,0,0,0.0392,0.0427,0.0431,0.0459,0.0464,0.0478,0.0489,0.0499,0.0523,0.048,0.0508,0.0447,0.0416,0.0396,0.035,0.0333,0.0333,0.0288,0.0285,0.0285,0.0302,0.0275,0.0273,0.0307,0.0308,0.0308,0.0281,0,0.0436,0.0499,0.0501,0.0557,0.0591,0.0571,0.0593,0.0594,0.0584,0.0599,0.0542,0.0548,0.0459,0.0458,0.042,0.0367,0.0338,0.0343,0.0265,0.0263,0.0244,0.0275,0.0295,0.0271,0.0281,0.0281,0.0281,0,0.0486,0.0526,0.0592,0.0645,0.0658,0.0681,0.0718,0.0737,0.0739,0.0733,0.0713,0.0674,0.0644,0.0565,0.0474,0.0482,0.0395,0.034,0.0337,0.029,0.0238,0.0241,0.0272,0.0121,0.0282,0.0282,0.0282,0,0.053,0.0591,0.0651,0.0668,0.0716,0.0738,0.0762,0.0777,0.0822,0.0832,0.0873,0.0801,0.0798,0.0682,0.0547,0.0517,0.0452,0.0394,0.0284,0.0281,0.0272,0.0267,0.0159,0.0322,0.0322,0.0322,0.0322,0,0.0584,0.0631,0.0677,0.0711,0.0789,0.0799,0.0882,0.089,0.094,0.1034,0.0953,0.1015,0.0828,0.0763,0.0608,0.0462,0.0491,0.0306,0.0277,0.0297,0.0295,0.0141,0.0033,0.0321,0.0321,0.0321,0.0321,0,0.0624,0.065,0.0728,0.0789,0.0813,0.0871,0.097,0.1039,0.1072,0.1194,0.1214,0.1185,0.1108,0.0911,0.0741,0.0563,0.0322,0.0348,0.0384,0.0359,0.0098,-0.0006,-0.0162,-0.0236,0.0225,0.0224,0.0224,0,0.0652,0.0696,0.0787,0.0843,0.0873,0.0963,0.1037,0.1095,0.1188,0.1323,0.14,0.1363,0.1379,0.1106,0.0784,0.0508,0.0323,0.0318,0.0248,0.0099,-0.0039,-0.0115,-0.0172,0.0266,0.0266,0.0266,0.0266,0,0.071,0.0738,0.0802,0.0919,0.1003,0.1117,0.123,0.1325,0.1434,0.1567,0.1728,0.1764,0.1503,0.124,0.0821,0.0614,0.0204,0.0303,0.0145,-0.0016,-0.0101,-0.019,0.0265,0.0264,0.0264,0.0264,0.0264,0.0265,0.075,0.0807,0.0892,0.1005,0.1113,0.1262,0.1379,0.1536,0.173,0.1954,0.1965,0.2071,0.1649,0.1096,0.0782,0.0207,0.018,0.0035,-0.0077,-0.0138,-0.0221,0.0228,0.0191,0.0191,0.0191,0.0191,0.0191,0,0.0807,0.0872,0.0978,0.1118,0.1254,0.1299,0.1508,0.1657,0.1921,0.2127,0.2286,0.2143,0.164,0.1087,0.0306,-0.0088,-0.0236,-0.0304,-0.0405,-0.0444,-0.0035,-0.0043,-0.0127,-0.0127,-0.0127,-0.0126,-0.0126,-0.0126,0.0837,0.0939,0.0995,0.1211,0.1321,0.1518,0.1649,0.1894,0.2082,0.2354,0.2432,0.2441,0.2001,0.0658,-0.0223,-0.0422,-0.0703,-0.0777,-0.0915,-0.0636,-0.0612,-0.059,-0.0621,-0.0825,-0.0826,-0.125,-0.1254,-0.1258]}],[{"header":{"parameterUnit":"m.s-1","parameterCategory":2,"la1":30.2991,"la2":30.254,"lo1":-89.0895,"lo2":-89.0444,"dy":0.0017,"dx":0.0017,"nx":28,"ny":28,"refTime":"2025-08-07T21:00:00:Z","depth":"2","parameterNumber":2,"parameterNumberName":"U-component_of_CURRENTS"},"data":[0,0,0,0,0,0,0,0,0,0,0,0,0,0,0,0,0,0,0,0,0,0,0,0,0,0,0,0,0,0,0,0,0,0,0,0,0,0,0,0,0,0,0,0,0,0,0,0,0,0,0,0,0,0,0,0,0,0,0.291,0.291,0,0.2914,0.2914,0.2914,0.2898,0.2898,0.2898,0.2898,0.2887,0.2887,0.2887,0,0,0,0,0,0,0,0,0,0,0,0,0,0.2892,0.2892,0.291,0.291,0.291,0.2914,0.2914,0.2914,0.2898,0.2898,0.2898,0.2898,0.2887,0.2887,0.2887,0,0,0,0,0,0,0,0,0,0,0,0,0,0.2896,0.2892,0.291,0.2905,0.2905,0.2914,0.2914,0.2914,0.2899,0.2898,0.2898,0.2898,0.2887,0.2887,0.2887,0.2892,0,0,0.2886,0.2886,0,0,0,0,0,0,0,0,0.2896,0.2896,0.2905,0.2906,0.2905,0.2908,0.2904,0.2907,0.2899,0.2898,0.2898,0.2897,0.2895,0.2894,0.2892,0.2892,0.2891,0.2886,0.2886,0.2886,0.2886,0,0,0,0,0,0,0,0.2895,0.2896,0.2909,0.2906,0.2906,0.2905,0.2905,0.2905,0.2895,0.2898,0.2898,0.2903,0.2894,0.2892,0.2891,0.2891,0.2886,0.2886,0.2886,0.2886,0.2947,0.2949,0,0,0,0,0,0,0.2901,0.2896,0.2908,0.2909,0.2903,0.2906,0.2905,0.2905,0.2896,0.2895,0.2903,0.2902,0.2892,0.2891,0.2891,0.2938,0.2886,0.2886,0.2886,0.2945,0.2947,0.2949,0,0,0,0,0,0,0.29,0.2902,0.2908,0.2905,0.2906,0.2907,0.2906,0.2905,0.2916,0.29,0.2899,0.2916,0.2892,0.2891,0.2907,0.2935,0.2886,0.2886,0.2943,0.2946,0.2948,0.3005,0,0,0,0,0,0,0.29,0.2901,0.2908,0.2905,0.2907,0.2924,0.2907,0.2906,0.292,0.2919,0.2911,0.2908,0.2892,0.2908,0.2907,0.2934,0.2886,0.2941,0.2944,0.2947,0.3001,0.3009,0.3016,0,0,0,0,0,0.2899,0.2906,0.2908,0.2911,0.2914,0.2925,0.2926,0.2923,0.2921,0.293,0.2929,0.2909,0.2928,0.2909,0.2908,0.2936,0.294,0.2943,0.2947,0.2997,0.3007,0.3016,0,0,0,0,0,0,0.29,0.2905,0.2908,0.2916,0.2927,0.2924,0.2934,0.2935,0.2941,0.2943,0.2926,0.2924,0.2952,0.2939,0.2919,0.2965,0.2933,0.2937,0.2972,0.2981,0.2988,0.2999,0.2886,0,0,0,0,0,0.2905,0.2913,0.292,0.293,0.2937,0.294,0.2947,0.2949,0.2952,0.2955,0.2951,0.2954,0.2966,0.2969,0.2974,0.2994,0.301,0.3015,0.3023,0.3029,0.3039,0.31,0.3115,0.2962,0.2962,0.2962,0,0,0.2907,0.2914,0.2917,0.2931,0.2938,0.2955,0.2943,0.296,0.2977,0.2953,0.2976,0.2981,0.298,0.3005,0.3017,0.2997,0.3081,0.3034,0.3039,0.3046,0.3106,0.3121,0.3134,0.2964,0.2964,0.2963,0,0,0.2916,0.2924,0.2934,0.2948,0.2969,0.2974,0.2985,0.2996,0.3003,0.3027,0.3022,0.3049,0.3054,0.3065,0.307,0.3125,0.3123,0.3127,0.3169,0.3228,0.3242,0.3253,0.3292,0.3306,0.3127,0.3127,0.3127,0,0.2921,0.2931,0.294,0.2959,0.2972,0.2987,0.3005,0.302,0.3036,0.3056,0.3043,0.3092,0.3086,0.3133,0.3149,0.3143,0.317,0.313,0.3239,0.3251,0.3262,0.3298,0.3314,0.313,0.313,0.3129,0.3129,0,0.2934,0.295,0.296,0.2986,0.3005,0.3024,0.3048,0.3075,0.309,0.3109,0.3163,0.3166,0.3199,0.3203,0.3188,0.3267,0.3259,0.3245,0.3214,0.3281,0.3315,0.333,0.3134,0.3133,0.3132,0.3132,0,0,0.2916,0.296,0.2963,0.2978,0.302,0.3032,0.3079,0.3121,0.3162,0.319,0.3245,0.3272,0.3292,0.33,0.3298,0.334,0.3434,0.3327,0.3328,0.3363,0.3563,0.3495,0.3504,0.3444,0.3447,0.3449,0.3555,0,0.2922,0.2952,0.2978,0.3011,0.3026,0.3066,0.3108,0.3156,0.3199,0.3259,0.3295,0.3344,0.3325,0.3348,0.3395,0.343,0.3477,0.3406,0.3496,0.3498,0.3428,0.3521,0.3215,0.3278,0.357,0.3572,0.3574,0,0.2917,0.2939,0.2968,0.302,0.3033,0.3062,0.3135,0.3177,0.3274,0.3317,0.339,0.342,0.3499,0.3465,0.3578,0.3537,0.3561,0.3577,0.3582,0.3509,0.3458,0.326,0.3294,0.3599,0.3597,0.3595,0.3593,0,0.2875,0.2927,0.2947,0.2964,0.3031,0.306,0.3103,0.3194,0.3246,0.3362,0.3423,0.3516,0.3576,0.3632,0.3674,0.3641,0.379,0.3745,0.3705,0.37,0.3451,0.3419,0.383,0.3829,0.3829,0.3829,0.3829,0,0.2853,0.2868,0.293,0.2938,0.2977,0.3037,0.31,0.3167,0.328,0.3355,0.3451,0.3526,0.3625,0.3711,0.3727,0.3777,0.3843,0.3738,0.3736,0.3462,0.3431,0.3711,0.3696,0.3833,0.3832,0.3831,0.3831,0,0.2793,0.2835,0.2858,0.2929,0.2953,0.298,0.3085,0.3136,0.326,0.3365,0.3408,0.357,0.3689,0.3768,0.3873,0.3845,0.3888,0.3881,0.3547,0.3503,0.374,0.3727,0.3853,0.3851,0.385,0.385,0.3849,0,0.2759,0.2767,0.2833,0.2848,0.2876,0.2935,0.2978,0.3107,0.3166,0.3375,0.3415,0.3587,0.367,0.3815,0.3801,0.3838,0.3904,0.3567,0.3443,0.3765,0.375,0.3738,0.3727,0.3133,0.3127,0.3121,0.3117,0,0.2696,0.2724,0.2745,0.278,0.2816,0.2857,0.2928,0.2973,0.3132,0.3226,0.3354,0.3443,0.3601,0.3511,0.3582,0.3551,0.3535,0.346,0.3905,0.3178,0.3096,0.3078,0.3089,0.3069,0.3074,0.3078,0.308,0.3082,0.2645,0.2643,0.2678,0.2697,0.2735,0.275,0.2739,0.2828,0.2897,0.2996,0.318,0.3215,0.3286,0.3237,0.3153,0.3084,0.3325,0.316,0.3172,0.3191,0.3092,0.3013,0.2952,0.2956,0.2959,0.2962,0.2965,0,0.2567,0.2577,0.2592,0.2594,0.2573,0.2645,0.2678,0.2633,0.264,0.2785,0.2866,0.2689,0.2659,0.2724,0.2544,0.2555,0.2484,0.245,0.232,0.2372,0.2417,0.2273,0.1918,0.1915,0.1912,0.1908,0,0,0.2528,0.2502,0.2502,0.2427,0.2429,0.2357,0.2343,0.2306,0.2343,0.2325,0.2332,0.2566,0.266,0.2263,0.2217,0.2031,0.2177,0.1949,0.2796,0.2697,0.2736,0.2845,0.2687,0,0,0,0,0]},{"header":{"parameterUnit":"m.s-1","parameterCategory":2,"la1":30.2991,"la2":30.254,"lo1":-89.0895,"lo2":-89.0444,"dy":0.0017,"dx":0.0017,"nx":28,"ny":28,"refTime":"2025-08-07T21:00:00:Z","depth":"2","parameterNumber":3,"parameterNumberName":"V-component_of_CURRENTS"},"data":[0,0,0,0,0,0,0,0,0,0,0,0,0,0,0,0,0,0,0,0,0,0,0,0,0,0,0,0,0,0,0,0,0,0,0,0,0,0,0,0,0,0,0,0,0,0,0,0,0,0,0,0,0,0,0,0,0,0,0.0188,0.0187,0,0.0146,0.0146,0.0145,0.0116,0.0116,0.0116,0.0116,0.0052,0.005,0.0048,0,0,0,0,0,0,0,0,0,0,0,0,0,0.0184,0.0185,0.0188,0.0187,0.0187,0.0147,0.0146,0.0145,0.0116,0.0116,0.0116,0.0116,0.0052,0.005,0.0048,0,0,0,0,0,0,0,0,0,0,0,0,0,0.0168,0.0185,0.0188,0.0169,0.0167,0.0147,0.0146,0.0145,0.0116,0.0116,0.0116,0.0116,0.0053,0.005,0.0048,0.0036,0,0,0.004,0.0039,0,0,0,0,0,0,0,0,0.0169,0.0168,0.0172,0.017,0.0168,0.0138,0.0121,0.0108,0.0117,0.0134,0.0116,0.0116,0.0079,0.0074,0.0066,0.0033,0.003,0.004,0.0039,0.0038,0.0037,0,0,0,0,0,0,0,0.017,0.0169,0.017,0.0172,0.0169,0.0143,0.014,0.0118,0.0107,0.0133,0.0131,0.0128,0.0078,0.0068,0.0064,0.0029,0.004,0.0038,0.0037,0.0036,-0.0008,-0.0008,0,0,0,0,0,0,0.0181,0.0171,0.0171,0.0169,0.0169,0.0143,0.0141,0.0146,0.0107,0.0102,0.0128,0.0127,0.0072,0.0067,0.0061,0.0064,0.0038,0.0035,0.0034,-0.0008,-0.0008,-0.0008,0,0,0,0,0,0,0.0181,0.0182,0.0173,0.0169,0.0166,0.0144,0.015,0.0146,0.014,0.0105,0.0098,0.0128,0.0072,0.0065,0.005,0.0061,0.0034,0.0032,-0.0009,-0.0008,-0.0008,0.0057,0,0,0,0,0,0,0.0181,0.0182,0.0189,0.017,0.0167,0.0171,0.015,0.0145,0.0139,0.0137,0.0102,0.0096,0.0071,0.0054,0.0048,0.0057,0.003,-0.0009,-0.0009,-0.0008,0.0055,0.006,0.0064,0,0,0,0,0,0.0182,0.0196,0.0189,0.0189,0.0178,0.0172,0.0168,0.0149,0.0139,0.0142,0.0119,0.0097,0.0053,0.0053,0.0045,0.0054,-0.0009,-0.0009,-0.0008,0.0053,0.0059,0.0064,0,0,0,0,0,0,0.0195,0.0194,0.0186,0.0199,0.0189,0.0167,0.0167,0.0155,0.0138,0.0135,0.0101,0.0094,0.0083,0.0059,0.0059,0.0042,0.0018,0.0017,0.0066,0.0072,0.0076,0.0097,0.0028,0,0,0,0,0,0.0202,0.0214,0.0203,0.0211,0.021,0.0189,0.0183,0.0173,0.0156,0.0148,0.0125,0.0099,0.0079,0.0069,0.0045,0.0038,0.0014,0.0037,0.0042,0.0046,0.0058,0.0031,0.0035,-0.0006,-0.0006,-0.0006,0,0,0.0208,0.0209,0.0214,0.0215,0.0204,0.0215,0.0185,0.0183,0.0191,0.0144,0.0144,0.0113,0.0079,0.0071,0.0064,0.0054,0.0045,0.0047,0.0051,0.006,0.0032,0.0036,0.004,-0.0005,-0.0005,-0.0005,0,0,0.0231,0.0228,0.0247,0.0247,0.0241,0.0232,0.0235,0.0219,0.0211,0.0205,0.0174,0.0154,0.0122,0.0104,0.009,0.0106,0.0069,0.0094,0.0138,0.0113,0.0116,0.0119,0.0094,0.0094,0.01,0.01,0.01,0,0.0238,0.0264,0.025,0.0269,0.0276,0.0246,0.0269,0.0257,0.0237,0.0237,0.0214,0.0174,0.0141,0.0137,0.0141,0.0119,0.0097,0.0122,0.012,0.0123,0.0124,0.0098,0.0097,0.0103,0.0103,0.0102,0.0102,0,0.0279,0.0298,0.0308,0.0328,0.0331,0.0345,0.0332,0.0328,0.0312,0.0301,0.0288,0.0241,0.0221,0.0202,0.0175,0.0174,0.0152,0.0128,0.011,0.0132,0.0102,0.01,0.0108,0.0106,0.0105,0.0105,0,0,0.0304,0.0334,0.0338,0.0363,0.0367,0.0379,0.0388,0.0395,0.0414,0.0375,0.0393,0.0342,0.0315,0.0296,0.0256,0.0231,0.0216,0.019,0.0187,0.0173,0.016,0.0135,0.0129,0.0191,0.0191,0.0191,0.0134,0,0.0342,0.0398,0.0399,0.0449,0.048,0.0461,0.048,0.0479,0.0468,0.0475,0.042,0.0416,0.0352,0.0344,0.0308,0.0245,0.0213,0.0233,0.0134,0.0131,0.0112,0.0127,0.0144,0.0094,0.0132,0.0132,0.0131,0,0.0386,0.0422,0.0481,0.0527,0.0538,0.0559,0.0591,0.0607,0.0599,0.0592,0.0568,0.0523,0.0483,0.0422,0.0322,0.0338,0.0256,0.0197,0.0193,0.0148,0.0102,0.0076,0.0088,0.0127,0.0128,0.0128,0.0128,0,0.0426,0.048,0.0534,0.0549,0.0591,0.061,0.0632,0.0642,0.068,0.067,0.0691,0.0621,0.0604,0.0491,0.0356,0.0341,0.0244,0.0205,0.0103,0.01,0.0084,0.0079,0.013,0.013,0.013,0.0131,0.0131,0,0.0474,0.0516,0.0557,0.0588,0.0659,0.0666,0.074,0.0744,0.078,0.0849,0.076,0.0787,0.0621,0.0539,0.0396,0.0251,0.027,0.0118,0.0087,0.0106,0.0104,0.0109,0.0107,0.0128,0.0129,0.0129,0.013,0,0.0511,0.0534,0.0603,0.0658,0.068,0.0733,0.082,0.0881,0.0895,0.0979,0.0981,0.0922,0.0818,0.0638,0.0465,0.0321,0.017,0.0108,0.0141,0.0115,0.003,0.0033,-0.0008,-0.0009,-0.001,-0.0011,-0.0012,0,0.0537,0.0576,0.0657,0.0709,0.0737,0.0819,0.0887,0.0934,0.1014,0.1072,0.1123,0.1042,0.1011,0.0735,0.0467,0.0214,0.0175,0.0049,0.0016,0.0044,0.0018,0.0022,0.0025,0.0017,0.0017,0.0016,0.0016,0,0.0589,0.0613,0.0671,0.0779,0.0857,0.0962,0.1062,0.1143,0.122,0.1285,0.1354,0.1328,0.1071,0.0815,0.0454,0.0277,0.0088,0.0033,0.0062,0.0051,0.0063,0.0039,0.0042,0.0013,0.0013,0.0013,0.0014,0.0014,0.0626,0.0676,0.0753,0.0857,0.0957,0.1092,0.1192,0.131,0.1443,0.1555,0.1524,0.149,0.1188,0.0732,0.0412,0.0066,0.0086,-0.0045,-0.0042,-0.0039,-0.0025,-0.0015,-0.0077,-0.0077,-0.0078,-0.0078,-0.0078,0,0.0678,0.0736,0.0831,0.0955,0.1074,0.1122,0.1304,0.1408,0.1572,0.1661,0.1712,0.1426,0.1132,0.0778,0.0269,-0.003,-0.0052,-0.0132,-0.0095,-0.0089,-0.0084,-0.0072,-0.0138,-0.0139,-0.014,-0.0141,0,0,0.0705,0.0797,0.0844,0.103,0.1127,0.1296,0.1408,0.1558,0.1658,0.1743,0.1727,0.1678,0.1242,0.0864,0.0452,0.0154,0.0103,0.0095,0.0175,0.0273,0.0282,-0.0003,0.0026,0,0,0,0,0]}],[{"header":{"parameterUnit":"m.s-1","parameterCategory":2,"la1":30.2991,"la2":30.254,"lo1":-89.0895,"lo2":-89.0444,"dy":0.0017,"dx":0.0017,"nx":28,"ny":28,"refTime":"2025-08-07T21:00:00:Z","depth":"4","parameterNumber":2,"parameterNumberName":"U-component_of_CURRENTS"},"data":[0,0,0,0,0,0,0,0,0,0,0,0,0,0,0,0,0,0,0,0,0,0,0,0,0,0,0,0,0,0,0,0,0,0,0,0,0,0,0,0,0,0,0,0,0,0,0,0,0,0,0,0,0,0,0,0,0,0,0.1872,0.1873,0,0.1928,0.1929,0.1929,0.198,0.1981,0.1982,0.1983,0.2051,0.2052,0.2054,0,0,0,0,0,0,0,0,0,0,0,0,0,0.1795,0.1796,0.1872,0.1873,0.1874,0.1928,0.1929,0.1929,0.198,0.1981,0.1982,0.1983,0.2051,0.2052,0.2054,0,0,0,0,0,0,0,0,0,0,0,0,0,0.1835,0.1796,0.1871,0.1907,0.1911,0.1928,0.1929,0.193,0.198,0.1981,0.1982,0.1983,0.2051,0.2052,0.2054,0.2039,0,0,0.2059,0.2059,0,0,0,0,0,0,0,0,0.1833,0.1838,0.1901,0.1905,0.1909,0.1951,0.1927,0.1968,0.1979,0.1951,0.1983,0.1984,0.202,0.2024,0.2028,0.2042,0.2045,0.2059,0.206,0.206,0.2061,0,0,0,0,0,0,0,0.183,0.1836,0.1892,0.1902,0.1907,0.1917,0.1923,0.1935,0.1976,0.1954,0.1958,0.1968,0.2022,0.2026,0.203,0.2046,0.2059,0.206,0.2061,0.2062,0.2173,0.2174,0,0,0,0,0,0,0.1828,0.1833,0.189,0.1894,0.1876,0.1917,0.1925,0.1934,0.1976,0.1984,0.1967,0.197,0.2023,0.2028,0.2033,0.2124,0.206,0.2062,0.2063,0.2171,0.2173,0.2175,0,0,0,0,0,0,0.1826,0.1832,0.1888,0.1867,0.1875,0.1917,0.1927,0.1935,0.1981,0.1986,0.1994,0.2011,0.2024,0.203,0.2082,0.2123,0.2063,0.2064,0.2168,0.2171,0.2174,0.2239,0,0,0,0,0,0,0.1823,0.1831,0.1857,0.1866,0.1876,0.1924,0.1927,0.1935,0.1984,0.199,0.2026,0.2031,0.2026,0.208,0.2084,0.2124,0.2065,0.2166,0.217,0.2173,0.2234,0.2244,0.2252,0,0,0,0,0,0.182,0.1841,0.1857,0.1866,0.1903,0.1925,0.1931,0.1963,0.1986,0.201,0.2041,0.2032,0.2107,0.2083,0.2087,0.2129,0.2164,0.2169,0.2173,0.223,0.2242,0.2251,0,0,0,0,0,0,0.182,0.1848,0.1867,0.1897,0.1924,0.1935,0.1967,0.1987,0.2029,0.205,0.2053,0.2061,0.2123,0.2118,0.2092,0.2173,0.2136,0.2141,0.2178,0.2189,0.2197,0.22,0.2067,0,0,0,0,0,0.1832,0.1861,0.1882,0.1913,0.1929,0.1957,0.198,0.2002,0.203,0.2053,0.2078,0.2109,0.2136,0.2158,0.2178,0.2219,0.2224,0.2251,0.226,0.2267,0.2273,0.2321,0.2334,0.219,0.219,0.219,0,0,0.1841,0.1862,0.188,0.1917,0.1942,0.197,0.1975,0.202,0.2053,0.2052,0.2121,0.2143,0.2155,0.2205,0.2232,0.2211,0.2312,0.2273,0.2279,0.2281,0.2327,0.2341,0.2353,0.2193,0.2192,0.2192,0,0,0.1858,0.1895,0.1921,0.1947,0.1995,0.2009,0.2032,0.207,0.2104,0.216,0.2173,0.2224,0.2264,0.2281,0.2292,0.2362,0.2358,0.2377,0.2423,0.247,0.2482,0.2492,0.2518,0.2531,0.238,0.238,0.238,0,0.1874,0.1904,0.1933,0.1963,0.1991,0.2031,0.2063,0.2097,0.2152,0.2186,0.2196,0.2284,0.2298,0.2354,0.2381,0.2382,0.2404,0.2379,0.2481,0.2491,0.2501,0.2525,0.2538,0.2384,0.2384,0.2383,0.2383,0,0.1895,0.1937,0.1957,0.2007,0.2041,0.2078,0.2121,0.2174,0.2223,0.2256,0.2342,0.2367,0.2421,0.2435,0.243,0.251,0.2502,0.2486,0.245,0.2519,0.254,0.2552,0.2389,0.2388,0.2387,0.2386,0,0,0.1876,0.1956,0.1968,0.2001,0.207,0.2093,0.2164,0.2227,0.2283,0.235,0.2419,0.2478,0.2512,0.2527,0.2539,0.2577,0.2663,0.257,0.257,0.2589,0.2766,0.2591,0.2587,0.2674,0.2676,0.2678,0.2753,0,0.1887,0.1945,0.1986,0.205,0.208,0.2144,0.2201,0.2272,0.2337,0.2415,0.2469,0.254,0.2541,0.2581,0.2626,0.2657,0.2699,0.2644,0.2701,0.2702,0.2534,0.2596,0.2686,0.2762,0.2764,0.2766,0.2768,0,0.1883,0.1926,0.1988,0.2073,0.2095,0.2146,0.2248,0.2306,0.2417,0.2477,0.2564,0.2608,0.2694,0.2676,0.2778,0.2749,0.2771,0.2783,0.2786,0.2607,0.255,0.2679,0.2789,0.2788,0.2786,0.2785,0.2783,0,0.1833,0.1922,0.1975,0.2004,0.2106,0.2161,0.2224,0.2333,0.2395,0.2526,0.2587,0.2691,0.2757,0.2809,0.2854,0.2833,0.2945,0.2911,0.2773,0.2761,0.2867,0.2855,0.2982,0.2982,0.2981,0.2981,0.2981,0,0.1801,0.1848,0.1965,0.1991,0.2065,0.2147,0.2239,0.232,0.2442,0.2507,0.2622,0.2682,0.2799,0.287,0.2891,0.287,0.2984,0.2789,0.2772,0.2892,0.2882,0.2875,0.2862,0.2984,0.2983,0.2983,0.2982,0,0.173,0.1809,0.1875,0.1999,0.2043,0.2097,0.2237,0.2289,0.2427,0.2516,0.2563,0.2715,0.2801,0.2885,0.2974,0.2898,0.2902,0.2868,0.3001,0.2989,0.2676,0.2665,0.2705,0.2699,0.2695,0.2691,0.2687,0,0.1693,0.1724,0.1865,0.1904,0.1967,0.2065,0.212,0.2268,0.2316,0.2504,0.2522,0.2672,0.2749,0.2738,0.2843,0.2868,0.2838,0.2813,0.2727,0.267,0.265,0.2647,0.2643,0.268,0.2679,0.2678,0.2676,0,0.1621,0.1692,0.1747,0.183,0.1899,0.1957,0.2049,0.2072,0.2223,0.2375,0.2421,0.2469,0.2562,0.2627,0.2674,0.2685,0.2808,0.2763,0.2772,0.2691,0.264,0.2625,0.2626,0.266,0.2663,0.2664,0.2665,0,0.1573,0.1591,0.1674,0.1728,0.1804,0.181,0.1879,0.1929,0.2001,0.2196,0.2214,0.2375,0.2532,0.2534,0.2578,0.2576,0.2528,0.2427,0.2452,0.2471,0.236,0.2259,0.2153,0,0,0,0,0,0.1512,0.1514,0.1559,0.1594,0.1658,0.1704,0.1806,0.1875,0.2024,0.1994,0.2096,0.2168,0.2233,0.2331,0.2283,0.2477,0.254,0.2409,0.2436,0.2571,0.259,0.248,0,0,0,0,0,0,0.1467,0.151,0.1515,0.1467,0.1467,0.1512,0.1572,0.1675,0.1669,0.1841,0.1896,0.2031,0.214,0.2241,0.2242,0.2269,0.2237,0.2521,0.2515,0.256,0.2577,0.2592,0.2486,0,0,0,0,0]},{"header":{"parameterUnit":"m.s-1","parameterCategory":2,"la1":30.2991,"la2":30.254,"lo1":-89.0895,"lo2":-89.0444,"dy":0.0017,"dx":0.0017,"nx":28,"ny":28,"refTime":"2025-08-07T21:00:00:Z","depth":"4","parameterNumber":3,"parameterNumberName":"V-component_of_CURRENTS"},"data":[0,0,0,0,0,0,0,0,0,0,0,0,0,0,0,0,0,0,0,0,0,0,0,0,0,0,0,0,0,0,0,0,0,0,0,0,0,0,0,0,0,0,0,0,0,0,0,0,0,0,0,0,0,0,0,0,0,0,0.0141,0.0141,0,0.0114,0.0114,0.0113,0.0096,0.0096,0.0096,0.0096,0.0049,0.0048,0.0046,0,0,0,0,0,0,0,0,0,0,0,0,0,0.0138,0.0138,0.0141,0.0141,0.0141,0.0114,0.0114,0.0113,0.0096,0.0096,0.0096,0.0095,0.0049,0.0048,0.0046,0,0,0,0,0,0,0,0,0,0,0,0,0,0.0127,0.0138,0.0141,0.0129,0.0128,0.0114,0.0114,0.0113,0.0096,0.0096,0.0096,0.0095,0.005,0.0048,0.0046,0.0036,0,0,0.0041,0.004,0,0,0,0,0,0,0,0,0.0128,0.0127,0.0131,0.013,0.0129,0.0109,0.0095,0.0087,0.0096,0.0107,0.0096,0.0095,0.0068,0.0064,0.0058,0.0034,0.0032,0.004,0.0039,0.0038,0.0038,0,0,0,0,0,0,0,0.0129,0.0128,0.013,0.0131,0.013,0.0111,0.011,0.0093,0.0087,0.0106,0.0105,0.0103,0.0067,0.006,0.0057,0.0031,0.004,0.0039,0.0038,0.0037,0.0004,0.0005,0,0,0,0,0,0,0.0136,0.0129,0.0131,0.0129,0.0129,0.0112,0.011,0.0115,0.0088,0.0084,0.0103,0.0102,0.0063,0.0059,0.0055,0.0059,0.0038,0.0037,0.0036,0.0004,0.0004,0.0005,0,0,0,0,0,0,0.0136,0.0137,0.0132,0.0129,0.0127,0.0112,0.0117,0.0114,0.0112,0.0086,0.0081,0.0105,0.0063,0.0058,0.0048,0.0057,0.0036,0.0034,0.0004,0.0004,0.0004,0.0056,0,0,0,0,0,0,0.0136,0.0137,0.0143,0.0129,0.0127,0.0131,0.0117,0.0114,0.0111,0.011,0.0086,0.0081,0.0063,0.0051,0.0046,0.0054,0.0033,0.0004,0.0004,0.0004,0.0054,0.0058,0.0061,0,0,0,0,0,0.0136,0.0147,0.0144,0.0144,0.0136,0.0132,0.0129,0.0117,0.0111,0.0114,0.0099,0.0082,0.005,0.005,0.0044,0.0051,0.0003,0.0004,0.0004,0.0052,0.0057,0.0061,0,0,0,0,0,0,0.0147,0.0146,0.0142,0.0151,0.0145,0.0129,0.013,0.0122,0.0112,0.0111,0.0085,0.008,0.0073,0.0055,0.0055,0.0042,0.0023,0.0023,0.0062,0.0066,0.007,0.0085,0.0031,0,0,0,0,0,0.0153,0.0162,0.0154,0.0161,0.016,0.0146,0.0143,0.0136,0.0124,0.012,0.0103,0.0085,0.007,0.0063,0.0045,0.004,0.0017,0.004,0.0044,0.0047,0.0055,0.0028,0.003,0.0006,0.0006,0.0006,0,0,0.0158,0.0159,0.0163,0.0164,0.0157,0.0166,0.0144,0.0144,0.0151,0.0116,0.0119,0.0096,0.007,0.0065,0.006,0.0052,0.0041,0.0048,0.0051,0.0057,0.0029,0.0031,0.0033,0.0007,0.0007,0.0006,0,0,0.0175,0.0175,0.0189,0.0189,0.0186,0.018,0.0183,0.0172,0.0168,0.0165,0.0142,0.0128,0.0106,0.0091,0.008,0.0093,0.006,0.0084,0.0119,0.0092,0.0094,0.0095,0.0066,0.0065,0.0088,0.0088,0.0088,0,0.0182,0.0201,0.0191,0.0206,0.0213,0.0191,0.021,0.0201,0.0189,0.0189,0.0174,0.0144,0.0119,0.0116,0.0119,0.0102,0.008,0.0105,0.0097,0.0098,0.0099,0.0069,0.0067,0.0091,0.0091,0.009,0.009,0,0.0211,0.0227,0.0235,0.0251,0.0255,0.0266,0.0258,0.0257,0.0247,0.024,0.0231,0.0196,0.0181,0.0167,0.0147,0.0142,0.0122,0.0104,0.0089,0.0104,0.0072,0.0069,0.0095,0.0094,0.0093,0.0092,0,0,0.0228,0.0253,0.0257,0.0277,0.0283,0.0293,0.0302,0.0309,0.0325,0.0296,0.0309,0.0273,0.0253,0.0239,0.0208,0.0183,0.0162,0.015,0.0148,0.0128,0.0101,0.0083,0.0077,0.0142,0.0142,0.0142,0.0076,0,0.0256,0.0299,0.0301,0.0343,0.0366,0.0356,0.0373,0.0374,0.0367,0.0371,0.0328,0.0327,0.0282,0.0278,0.0244,0.0186,0.0156,0.0181,0.0084,0.0081,0.0068,0.0074,0.0141,0.0073,0.0072,0.0072,0.0071,0,0.0286,0.0315,0.0362,0.0402,0.0411,0.0431,0.046,0.0475,0.0468,0.0463,0.0445,0.041,0.0374,0.033,0.0237,0.0256,0.0186,0.0132,0.0128,0.0093,0.0058,0.0053,0.0065,0.0065,0.0066,0.0066,0.0066,0,0.0312,0.0358,0.0401,0.0414,0.0452,0.0472,0.0493,0.0504,0.0535,0.0526,0.0539,0.0482,0.0465,0.0368,0.0254,0.0247,0.0143,0.0118,0.0033,0.0031,0.0044,0.0043,0.0049,0.0049,0.005,0.005,0.005,0,0.0343,0.0379,0.042,0.0444,0.0505,0.0516,0.058,0.0585,0.0615,0.0659,0.0595,0.0604,0.0474,0.0395,0.0277,0.0148,0.0159,0.0043,0.0015,0.0066,0.0069,0.0041,0.0041,0.0047,0.0048,0.0048,0.0049,0,0.0363,0.0387,0.0444,0.0496,0.0519,0.0565,0.0647,0.0696,0.0708,0.0759,0.0761,0.0705,0.0602,0.0455,0.0302,0.0193,0.0061,0.0009,0.0079,0.0056,-0.0041,-0.0037,-0.0087,-0.0088,-0.0089,-0.009,-0.0091,0,0.0376,0.0408,0.0485,0.0531,0.0559,0.0634,0.0694,0.074,0.0796,0.082,0.0845,0.0767,0.0703,0.048,0.0315,0.0085,0.0045,-0.0031,-0.0042,-0.0032,-0.0054,-0.0049,-0.0044,-0.0092,-0.0093,-0.0093,-0.0093,0,0.0405,0.0432,0.048,0.0575,0.0646,0.0736,0.0818,0.0867,0.0919,0.0928,0.092,0.08,0.0681,0.0494,0.0314,0.0146,0.0015,-0.0042,-0.0041,-0.0052,-0.0039,-0.0058,-0.0053,-0.0096,-0.0096,-0.0096,-0.0095,0,0.0426,0.0464,0.0531,0.0616,0.0711,0.0806,0.0851,0.0916,0.0969,0.0985,0.0982,0.0843,0.0772,0.0526,0.0361,0.0192,0.0142,0.0073,0.0067,0.0068,0.0123,0.0164,0.015,0,0,0,0,0,0.0446,0.0492,0.057,0.0663,0.0762,0.082,0.0923,0.0963,0.1006,0.101,0.1,0.0885,0.0647,0.0553,0.0382,0.0325,0.01,0.0115,0.0015,-0.0115,-0.0111,-0.0076,0,0,0,0,0,0,0.0459,0.0529,0.0567,0.069,0.0762,0.0876,0.0946,0.0978,0.0984,0.0995,0.0882,0.0822,0.06,0.0743,0.0372,0.0322,0.0229,0.0008,0.0004,-0.0117,-0.0114,-0.0111,-0.0073,0,0,0,0,0]}]]